sat.trackr.live / text

‹ back to catalog

2025-055G

NORAD 63297 · 2025-055G

PAYLOAD ACTIVE UNKNOWN

§ Identity

Operator
Country
PRC
Launch date
2025-03-17
Launch site
JSC
Launch vehicle
Mass (kg)
RCS (m²)

External: N2YO · Heavens-Above · Gunter

§ Orbital elements

Epoch: 2026-09-22T23:16:37.790112Z

Period
94.23 min
Inclination
97.6594°
Eccentricity
0.0007953
Mean motion
15.28234508 rev/d
Perigee alt
475.6 km
Apogee alt
486.5 km
Semi-major
6,859.2 km
B*
5.1642e-4
RAAN
51.5495°
Arg perigee
167.5805°
Mean anomaly
192.5632°
Rev number
8,415

§ Raw data

2025-055G1 63297U 25055G   26265.96988183  .00014154  00000+0  51642-3 0  99922 63297  97.6594  51.5495 0007953 167.5805 192.5632 15.28234508 84158

JSON: /api/v1/satellites/63297 · /tle

For live sub-satellite position, see the globe view (requires WebGL).

§ Visibility from observer

Set your observer location to see the next 7 days of passes ≥ 10°. The values pass through the URL so the page stays shareable.

No JS? Fill the form by hand. The geolocation button needs JavaScript.